[[{"header":{"parameterUnit":"m.s-1","parameterCategory":1,"la1":30.2991,"la2":30.254,"lo1":-89.0895,"lo2":-89.0444,"dy":0.0017,"dx":0.0017,"nx":28,"ny":28,"refTime":"2023-10-27T21:00:00:Z","depth":0,"parameterNumber":2,"parameterNumberName":"U-component_of_WINDS"},"data":[0,0,0,0,0,0,0,0,0,0,0,0,0,0,0,0,0,0,0,0,0,0,0,0,0,0,0,0,0,0,0,0,0,0,0,0,0,0,0,0,0,0,0,0,0,0,0,0,0,0,0,0,0,0,0,0,0,0,-2.3753,-2.3754,0,-2.3777,-2.3777,-2.3778,-2.3701,-2.3698,-2.3696,-2.3694,-2.372,-2.3723,-2.3725,0,0,0,0,0,0,0,0,0,0,0,0,0,-2.3645,-2.3647,-2.3753,-2.3754,-2.3754,-2.3777,-2.3777,-2.3778,-2.3701,-2.3698,-2.3695,-2.3693,-2.3719,-2.3722,-2.3726,0,0,0,0,0,0,0,0,0,0,0,0,0,-2.3683,-2.3648,-2.3753,-2.3718,-2.3716,-2.3777,-2.3777,-2.3778,-2.3702,-2.3698,-2.3695,-2.3691,-2.3718,-2.3722,-2.3726,-2.3823,0,0,-2.3739,-2.3741,0,0,0,0,0,0,0,0,-2.3681,-2.3687,-2.3723,-2.3721,-2.3718,-2.3732,-2.3749,-2.3793,-2.3702,-2.3707,-2.3694,-2.369,-2.3727,-2.373,-2.3742,-2.3824,-2.3825,-2.374,-2.3742,-2.3744,-2.3745,0,0,0,0,0,0,0,-2.3678,-2.3685,-2.3763,-2.3724,-2.3721,-2.3703,-2.3704,-2.3757,-2.3736,-2.3706,-2.3701,-2.3705,-2.3725,-2.3738,-2.3742,-2.3826,-2.374,-2.3743,-2.3746,-2.3748,-2.3989,-2.3993,0,0,0,0,0,0,-2.368,-2.3684,-2.3762,-2.3763,-2.369,-2.3707,-2.3709,-2.3731,-2.3736,-2.3733,-2.3707,-2.3701,-2.3733,-2.3737,-2.3743,-2.3857,-2.3744,-2.3748,-2.3751,-2.3986,-2.399,-2.3994,0,0,0,0,0,0,-2.3678,-2.3688,-2.3761,-2.3722,-2.373,-2.3713,-2.3738,-2.3734,-2.3747,-2.3736,-2.3733,-2.3725,-2.373,-2.3737,-2.3804,-2.3857,-2.375,-2.3754,-2.3981,-2.3987,-2.3992,-2.4086,0,0,0,0,0,0,-2.3675,-2.3687,-2.3723,-2.3723,-2.3732,-2.3821,-2.3742,-2.3736,-2.3754,-2.3746,-2.3752,-2.3749,-2.3728,-2.3798,-2.3808,-2.3861,-2.3757,-2.3976,-2.3984,-2.3991,-2.4078,-2.4094,-2.4108,0,0,0,0,0,-2.3671,-2.3748,-2.3725,-2.3735,-2.3777,-2.3824,-2.3829,-2.3802,-2.3759,-2.3795,-2.3789,-2.3749,-2.385,-2.3805,-2.3816,-2.3871,-2.3973,-2.3982,-2.399,-2.4071,-2.4091,-2.4108,0,0,0,0,0,0,-2.3755,-2.3748,-2.3722,-2.3801,-2.3814,-2.3811,-2.3855,-2.3824,-2.3849,-2.384,-2.3807,-2.3809,-2.3882,-2.3883,-2.3834,-2.3966,-2.3904,-2.3915,-2.3962,-2.3981,-2.3995,-2.3993,-2.3761,0,0,0,0,0,-2.3782,-2.382,-2.3813,-2.3883,-2.3891,-2.3873,-2.3892,-2.3871,-2.3882,-2.3887,-2.3886,-2.3899,-2.3934,-2.3957,-2.3989,-2.4078,-2.4079,-2.4122,-2.4137,-2.4149,-2.4159,-2.4208,-2.4227,-2.4023,-2.4023,-2.4023,0,0,-2.3839,-2.384,-2.3866,-2.39,-2.3907,-2.3949,-2.3877,-2.3924,-2.3954,-2.3894,-2.3957,-2.3957,-2.397,-2.4049,-2.4084,-2.4053,-2.4216,-2.416,-2.417,-2.4173,-2.4218,-2.4238,-2.4255,-2.4029,-2.4028,-2.4027,0,0,-2.3965,-2.3969,-2.4029,-2.4038,-2.405,-2.4037,-2.4052,-2.4054,-2.4052,-2.4114,-2.4071,-2.4107,-2.4168,-2.4179,-2.4193,-2.4325,-2.429,-2.4337,-2.4415,-2.4463,-2.4479,-2.4493,-2.454,-2.4558,-2.4347,-2.4347,-2.4347,0,-2.4034,-2.4094,-2.4064,-2.4113,-2.413,-2.4078,-2.4139,-2.415,-2.4172,-2.4185,-2.415,-2.4225,-2.423,-2.4312,-2.4344,-2.4357,-2.4374,-2.4335,-2.4479,-2.4492,-2.4505,-2.455,-2.4568,-2.4353,-2.4352,-2.4351,-2.4351,0,-2.4179,-2.4222,-2.4269,-2.4291,-2.4313,-2.4368,-2.4348,-2.4374,-2.4352,-2.4344,-2.4409,-2.4414,-2.4446,-2.4464,-2.4442,-2.4543,-2.4523,-2.4484,-2.4421,-2.4531,-2.4572,-2.4589,-2.4361,-2.4359,-2.4357,-2.4355,0,0,-2.4355,-2.4362,-2.438,-2.439,-2.44,-2.4433,-2.4487,-2.4518,-2.4541,-2.4559,-2.4604,-2.4657,-2.4621,-2.4637,-2.4617,-2.4659,-2.4764,-2.4614,-2.4614,-2.4642,-2.4877,-2.4906,-2.4926,-2.4742,-2.4745,-2.4747,-2.4876,0,-2.4479,-2.457,-2.4546,-2.4637,-2.4676,-2.4629,-2.4676,-2.4688,-2.4683,-2.4716,-2.471,-2.4749,-2.4699,-2.4708,-2.4748,-2.4743,-2.4811,-2.4734,-2.4784,-2.4786,-2.4781,-2.4948,-2.4978,-2.5099,-2.4892,-2.4895,-2.4897,0,-2.4634,-2.4658,-2.4753,-2.4758,-2.4774,-2.4816,-2.4844,-2.4876,-2.489,-2.4883,-2.4902,-2.4874,-2.4928,-2.4866,-2.4941,-2.4889,-2.4909,-2.491,-2.4914,-2.4917,-2.4847,-2.4956,-2.5137,-2.5155,-2.4922,-2.492,-2.4918,0,-2.4753,-2.4809,-2.4873,-2.4884,-2.4891,-2.4923,-2.4928,-2.4938,-2.4959,-2.4983,-2.4997,-2.5028,-2.5044,-2.507,-2.5051,-2.5007,-2.513,-2.5066,-2.5126,-2.5127,-2.5153,-2.5152,-2.534,-2.5167,-2.5167,-2.5166,-2.5166,0,-2.4893,-2.4953,-2.4927,-2.4967,-2.5034,-2.5006,-2.5073,-2.5073,-2.5083,-2.5123,-2.5084,-2.5123,-2.5096,-2.5132,-2.5118,-2.5184,-2.5192,-2.5188,-2.5184,-2.5191,-2.5192,-2.5203,-2.5194,-2.5171,-2.517,-2.5169,-2.5168,0,-2.5037,-2.5022,-2.5089,-2.5091,-2.5094,-2.5143,-2.5145,-2.5183,-2.5175,-2.5226,-2.5236,-2.5225,-2.5266,-2.525,-2.5294,-2.5285,-2.5368,-2.5353,-2.5363,-2.5359,-2.5421,-2.5415,-2.5623,-2.5649,-2.5459,-2.5461,-2.5463,0,-2.5126,-2.5171,-2.5179,-2.5203,-2.521,-2.5249,-2.527,-2.5246,-2.527,-2.529,-2.5326,-2.5364,-2.5392,-2.5461,-2.5457,-2.5491,-2.5476,-2.5546,-2.5481,-2.5487,-2.5477,-2.5474,-2.5479,-2.5559,-2.5561,-2.5563,-2.5565,0,-2.5287,-2.5278,-2.5309,-2.534,-2.5366,-2.5389,-2.5408,-2.543,-2.5407,-2.5436,-2.5477,-2.55,-2.5545,-2.5584,-2.5614,-2.562,-2.559,-2.5586,-2.5601,-2.5609,-2.5613,-2.5612,-2.5399,-2.5581,-2.5579,-2.5578,-2.5577,-2.5576,-2.5406,-2.5445,-2.5457,-2.5494,-2.5506,-2.5525,-2.5561,-2.5558,-2.5592,-2.5627,-2.5611,-2.566,-2.5674,-2.5712,-2.5723,-2.5761,-2.5734,-2.5757,-2.5763,-2.5769,-2.5777,-2.5608,-2.5767,-2.5766,-2.5766,-2.5766,-2.5765,0,-2.5565,-2.5571,-2.5605,-2.5633,-2.5663,-2.5632,-2.5652,-2.5679,-2.5722,-2.5738,-2.5768,-2.5817,-2.5854,-2.5854,-2.589,-2.5921,-2.5907,-2.5931,-2.5928,-2.593,-2.5799,-2.5782,-2.5941,-2.5941,-2.5941,-2.5941,-2.5941,-2.5941,-2.5651,-2.5715,-2.5708,-2.5778,-2.5783,-2.583,-2.5844,-2.5863,-2.5875,-2.5931,-2.5962,-2.5962,-2.5972,-2.6009,-2.6042,-2.6041,-2.6056,-2.6085,-2.6079,-2.5956,-2.5939,-2.5922,-2.5906,-2.6089,-2.6089,-2.6207,-2.6208,-2.6209]},{"header":{"parameterUnit":"m.s-1","parameterCategory":1,"la1":30.2991,"la2":30.254,"lo1":-89.0895,"lo2":-89.0444,"dy":0.0017,"dx":0.0017,"nx":28,"ny":28,"refTime":"2023-10-27T21:00:00:Z","depth":0,"parameterNumber":3,"parameterNumberName":"V-component_of_WINDS"},"data":[0,0,0,0,0,0,0,0,0,0,0,0,0,0,0,0,0,0,0,0,0,0,0,0,0,0,0,0,0,0,0,0,0,0,0,0,0,0,0,0,0,0,0,0,0,0,0,0,0,0,0,0,0,0,0,0,0,0,1.3776,1.3778,0,1.3889,1.389,1.3891,1.3941,1.3941,1.3941,1.3941,1.4052,1.4055,1.4058,0,0,0,0,0,0,0,0,0,0,0,0,0,1.3604,1.3607,1.3776,1.3778,1.3779,1.3888,1.389,1.3891,1.3941,1.3941,1.3941,1.3941,1.4051,1.4054,1.4058,0,0,0,0,0,0,0,0,0,0,0,0,0,1.3693,1.3608,1.3776,1.3817,1.3822,1.3888,1.389,1.3892,1.3941,1.3941,1.3941,1.3941,1.405,1.4054,1.4059,1.4091,0,0,1.4073,1.4075,0,0,0,0,0,0,0,0,1.3688,1.37,1.381,1.3814,1.382,1.3901,1.387,1.3958,1.3941,1.3896,1.3941,1.394,1.4001,1.401,1.4031,1.4096,1.4101,1.4073,1.4076,1.4078,1.4079,0,0,0,0,0,0,0,1.3682,1.3695,1.3821,1.3811,1.3817,1.383,1.3842,1.3887,1.3948,1.39,1.3904,1.3916,1.4004,1.4027,1.4034,1.4103,1.4073,1.4077,1.408,1.4082,1.4203,1.4203,0,0,0,0,0,0,1.3669,1.369,1.3817,1.3824,1.3752,1.3833,1.3847,1.3875,1.3948,1.3959,1.3916,1.3918,1.4019,1.4029,1.4038,1.4083,1.4078,1.4082,1.4085,1.4202,1.4203,1.4204,0,0,0,0,0,0,1.3665,1.368,1.3812,1.3758,1.3776,1.3836,1.3867,1.3877,1.39,1.3961,1.3972,1.3928,1.4019,1.4032,1.4079,1.4088,1.4084,1.4088,1.4202,1.4203,1.4203,1.4172,0,0,0,0,0,0,1.366,1.3679,1.3691,1.3758,1.3779,1.3851,1.3868,1.388,1.3908,1.3912,1.3975,1.3985,1.402,1.4071,1.4083,1.4094,1.4092,1.4201,1.4202,1.4203,1.4172,1.4171,1.417,0,0,0,0,0,1.3654,1.3677,1.3692,1.3707,1.3796,1.3851,1.3863,1.3904,1.3909,1.3922,1.3962,1.3983,1.4085,1.4076,1.4089,1.4102,1.4201,1.4202,1.4203,1.4173,1.4171,1.417,0,0,0,0,0,0,1.3607,1.3686,1.3704,1.3749,1.3793,1.386,1.3878,1.3901,1.3944,1.3945,1.3994,1.4007,1.405,1.4081,1.4069,1.4139,1.4145,1.4149,1.4117,1.4117,1.4116,1.4107,1.4096,0,0,0,0,0,1.3603,1.3642,1.3708,1.3741,1.3763,1.3817,1.3842,1.3871,1.3918,1.3937,1.3979,1.4024,1.4067,1.4093,1.4135,1.4177,1.4192,1.4193,1.4192,1.4191,1.4193,1.422,1.4222,1.4207,1.4207,1.4207,0,0,1.3593,1.3641,1.3662,1.3733,1.3771,1.3811,1.3832,1.3872,1.3902,1.3942,1.399,1.4023,1.4076,1.4121,1.4143,1.4148,1.4201,1.4192,1.4191,1.4194,1.4221,1.4223,1.4224,1.4208,1.4207,1.4207,0,0,1.3595,1.3635,1.3668,1.3707,1.3765,1.3801,1.3809,1.3873,1.3897,1.3946,1.3978,1.4014,1.4085,1.4123,1.4151,1.4171,1.4193,1.4183,1.4179,1.4204,1.4205,1.4207,1.4216,1.4218,1.4186,1.4186,1.4186,0,1.3575,1.3637,1.3682,1.3722,1.3753,1.3794,1.3828,1.3863,1.3931,1.3951,1.3956,1.4049,1.4087,1.4143,1.4149,1.4169,1.4181,1.4176,1.4202,1.4204,1.4205,1.4214,1.4217,1.4185,1.4185,1.4185,1.4185,0,1.361,1.3652,1.3672,1.374,1.3773,1.381,1.3861,1.3889,1.3915,1.3951,1.4001,1.405,1.4103,1.4119,1.4143,1.4179,1.418,1.4193,1.42,1.4205,1.4214,1.4218,1.4183,1.4183,1.4183,1.4184,0,0,1.3584,1.3679,1.3685,1.3718,1.3786,1.382,1.3859,1.3914,1.3938,1.3984,1.4019,1.408,1.4093,1.4125,1.4155,1.4177,1.4193,1.4188,1.419,1.4188,1.4237,1.4228,1.4231,1.4208,1.4209,1.4209,1.4233,0,1.3597,1.367,1.3714,1.3769,1.381,1.3851,1.3885,1.3931,1.3966,1.4006,1.4044,1.4087,1.4101,1.4121,1.4145,1.4186,1.4203,1.4185,1.4241,1.4242,1.4227,1.4236,1.4225,1.4245,1.4237,1.4238,1.4238,0,1.362,1.3669,1.3729,1.3796,1.3814,1.3845,1.39,1.3937,1.3991,1.4015,1.4052,1.4083,1.4127,1.4131,1.4192,1.4179,1.4204,1.4228,1.423,1.4237,1.424,1.4244,1.4252,1.4256,1.4244,1.4243,1.4243,0,1.3597,1.3677,1.3724,1.375,1.3829,1.385,1.3883,1.3937,1.3968,1.4016,1.4037,1.4089,1.4117,1.4157,1.4201,1.4199,1.4258,1.4266,1.428,1.4279,1.429,1.4289,1.4304,1.4305,1.4305,1.4305,1.4305,0,1.3607,1.3642,1.3715,1.3744,1.3786,1.3836,1.3876,1.3913,1.3961,1.3998,1.4035,1.4069,1.4125,1.4166,1.4201,1.4247,1.4259,1.428,1.4289,1.4277,1.4275,1.4295,1.4295,1.4306,1.4306,1.4306,1.4306,0,1.3587,1.3638,1.3692,1.3764,1.3783,1.381,1.3871,1.3901,1.394,1.3986,1.4,1.406,1.411,1.4159,1.4225,1.4248,1.4296,1.4307,1.4278,1.4283,1.4295,1.4294,1.4324,1.4332,1.4327,1.4327,1.4327,0,1.359,1.3619,1.3695,1.3724,1.3757,1.3802,1.3835,1.3886,1.3919,1.3984,1.4006,1.406,1.4106,1.4185,1.4234,1.4286,1.4299,1.4306,1.4307,1.4295,1.4301,1.4299,1.4303,1.4305,1.4305,1.4304,1.4304,0,1.3591,1.3615,1.3662,1.3718,1.3757,1.3803,1.3851,1.3872,1.3932,1.3967,1.4021,1.4056,1.4127,1.418,1.4238,1.4273,1.4299,1.4304,1.4311,1.4299,1.4282,1.4293,1.4276,1.4303,1.4303,1.4303,1.4303,1.4303,1.3584,1.3613,1.3671,1.3723,1.3765,1.3809,1.3842,1.3885,1.3931,1.3994,1.4021,1.4075,1.4131,1.4212,1.4247,1.429,1.4296,1.4304,1.4307,1.4308,1.4307,1.4275,1.43,1.43,1.4301,1.4301,1.4301,0,1.3587,1.3628,1.3675,1.3742,1.3783,1.3806,1.3861,1.3894,1.3942,1.3992,1.4037,1.41,1.4153,1.4207,1.4263,1.4287,1.4301,1.43,1.4299,1.4307,1.4297,1.4287,1.4289,1.4289,1.4289,1.4289,1.4289,1.4289,1.3594,1.3645,1.3677,1.3749,1.3789,1.3844,1.3874,1.3915,1.3956,1.4025,1.407,1.4106,1.4158,1.4219,1.4269,1.4284,1.4303,1.4299,1.4317,1.4307,1.4307,1.4308,1.4299,1.4303,1.4303,1.4324,1.4324,1.4324]}]]